Погода в Шадринске

Хотите узнать прогноз погоды в Шадринске? Тогда Вам сюда: Погода в Шадринске

Поиск расширенной информации на нашем сайте:

Полезная информация:

Новости сайта



02.01.2020
Опубликован Долгосрочный прогноз погоды по городам России и ближнего зарубежья на январь 2020 года.
Карты: Прогноз на январь и февраль 2020 года, Сравнение прогнозируемой аномалии приземной температуры воздуха на январь 2020 года по разным моделям.




Погода в Шадринске - сегодня

Время (UTC), дата Ветер
(°,м/с) 
Видим.   Явления Облачность Т
(°С)
Тd
(°С)
f(%) Тe
(°С)
Pmin
(гПа)
dP
(гПа)
Po
(мм)
O2
(г/м3)
Тmin Tmax R s Состояние
почвы
09 16.01.21 130 (ЮВ) 10 км    10/10 600 м 
[Sc]
-7.9 -13.1 66 -9  1007.6  -2.6  747  311           
12 16.01.21 150 (ЮВ) 10 км    9/8 600 м верхняя 
[Sc|Ci sp]
-7.4 -12.3 68 -9  1004.6  -2.9  745  310           
15 16.01.21 230 (ЮЗ) 2000 м  снег  10/0 средняя 
[As trans]
-8 -11 79 -11  1004.3  -0.3  745  310    -7.3  0.0     
18 16.01.21 280 (З) 10 км  {снег}  10/0 средняя 
[As trans]
-7.2 -10.4 78 -9  1004.4  0.1  745  309           
21 16.01.21 220 (ЮЗ) 10 км    6/4 600 м верхняя 
[Sc|Ci sp]
-10.5 -13.5 79 -14  1005.8  1.2  746  314           
00 17.01.21 210 (ЮЗ) 10 км    3/3 600 м 
[Sc]
-11.7 -14.8 78 -15  1006.6  0.7  746  315           
03 17.01.21 170 (Ю) 10 км    10/0 верхняя 
[Ci sp]
-10.7 -14.1 76 -11  1004.8  -1.7  745  314  -13.3    0.3  22  равномерный
сухой снег
100% 
06 17.01.21 210 (ЮЗ) 6{12}  10 км  позёмок  3/1 600 м верхняя 
[Sc|Ci sp]
-9.6 -14.1 70 -15  1003.6  -1.1  744  312           
09 17.01.21 210 (ЮЗ) 7-11{11}  4000 м  слаб. снег  10/0 средняя 
[As trans]
-8.2 -11.9 75 -14  1001.9  -1.7  743  310           
12 17.01.21 220 (ЮЗ) 4{11}  4000 м  слаб. снег  10/0 средняя 
[As op]
-7.8 -11.1 77 -11  1001.5  -0.3  743  309           
15 17.01.21 250 (З) 5{10}  10 км  позёмок{снег}  6/3 600 м верхняя 
[Sc|Ci sp]
-10.2 -16 62 -15  1004.3  2.7  745  313    -7.7  0.2     
18 17.01.21 260 (З) 4{10}  10 км  позёмок{снег}  6/0 верхняя 
[Ci sp]
-12.2 -17.9 62 -16  1006.7  2.2  746  316           
21 17.01.21 260 (З) 10 км    ясно 
-14.5 -19.5 66 -18  1009.2  2.2  748  320           
00 18.01.21 250 (З) 10 км    ясно 
-16.9 -21.1 70 -19  1011.9  2.6  750  324           
03 18.01.21 270 (З) 10 км    4/0 верхняя 
[Ci sp]
-19 -22.9 71 -19  1014.5  2.5  752  327  -19      20  равномерный
сухой снег
100% 
06 18.01.21 250 (З) 10 км    1/0 верхняя 
[Ci sp]
-17.6 -22 68 -22  1017  2.5  754  326  -20         
09 18.01.21 270 (З) 10 км    1/0 верхняя 
[Ci sp]
-15.3 -21.1 61 -19  1018.3  1.3  755  324           
12 18.01.21 220 (ЮЗ) 10 км    1/0 верхняя 
[Ci sp]
-17.2 -22.4 64 -20  1019.8  1.4  756  327           
15 18.01.21 280 (З) 10 км    ясно 
-18 -22.5 68 -18  1020  0.2  756  328    -14.9       
18 18.01.21 240 (ЮЗ) 10 км    ясно 
-20 -23.5 74 -20  1021.1  0.9  757  331           
21 18.01.21 270 (З) 10 км    ясно 
-23.2 -26 78 -24  1021.9  0.7  757  335           
00 19.01.21 тихо ()   10 км    4/0 верхняя 
[Ci sp]
-23.7 -26.8 76 -24  1022.7  0.7  758  336           
03 19.01.21 210 (ЮЗ) 10 км    8/3 600 м верхняя 
[Sc|Ci sp]
-26.1 -29.5 73 -27  1023  0.2  758  340  -26.1      20  равномерный
сухой снег
100% 
06 19.01.21 тихо ()   4000 м  дымка  10/4 600 м верхняя 
[Sc|Ci sp]
-24.4 -27.7 74 -24  1023.7  0.8  758  337  -26.2         
09 19.01.21 060 (СВ) 4000 м  дымка  10/0 средняя 
[As trans]
-20.5 -23.7 76 -21  1024.1  0.5  759  332           
Время (UTC), дата Ветер
(°,м/с) 
Видим.   Явления Облачность Т
(°С)
Тd
(°С)
f(%) Тe
(°С)
Pmin
(гПа)
dP
(гПа)
Po
(мм)
O2
(г/м3)
Тmin Tmax R s Состояние
почвы

Для получения пояснительной информации подведите курсор к названию столбца.

ПОГОДА в Шадринске - архив

Всё, что Вы хотите узнать о погоде в Шадринске - удобно и подробно!

Выберите нужную дату (начиная с 1 января 2019* года) и нажмите кнопку "Найти".
Будут отображены архивные сводки погоды по пункту Шадринск, начиная с указанной даты.


Отображать данные в формате CSV (для использования в таблицах Excel)


Внимание! Наш архив погоды предназначен исключительно для личного некоммерческого использования в познавательных целях. Если Вам необходимы официальные справки о состоянии погоды (для производственных, юридических, коммерческих и т.п. целей), обращайтесь в органы Росгидромета.

*Примечание: данная дата относится к архиву по метеостанциям СССР (Россия, СНГ, Балтия).
Архив по метеостанциям Зарубежной Европы и Азии (кроме Китая) хранится 10 дней, по другим регионам земного шара (Китай, Африка, Америка, Австралия, Океания) - 1 день.

Шадринск - район местоположения метеостанции


Название, широта, долгота, высота метеостанции:
Шадринск 56.1°ш. 63.6°д. 89 м над ур. моря [Российская Федерация]

Дополнительная информация

В oтличие oт бoльшинства пoгoдных сайтoв мы публикуем пoдрoбную метеoинфoрмацию в детальнoм прoфессиoнальнoм фoрмате.

Характеристики температуры и влажнoсти вoздуха измеряются на высoте 2 м в тени вдали oт зданий и деревьев.
Скoрoсть ветра измеряется на высoте 10 м (на урoвне рoста челoвека скoрoсть ветра ниже в 1.5-2 раза). Если метеoстанция нахoдится в гoрoде или в лесу, тo скoрoсть ветра занижена на 2-4 м/с пo сравнению с oткрытым местoм. Скoрoсть ветра над акватoриями крупных рек и oзёр, а также на вершинах хoлмoв на 2-5 м/с выше, чем в oбычных услoвиях.
Атмoсфернoе давление в разных тoчках местнoсти мoжет значительнo oтличаться oт давления на метеoстанции, в зависимoсти oт услoвий рельефа (при пoдъёме на 10 м давление пoнижается примернo на 1 мм рт.ст.).